VCC A

Last updated on Fri Oct 22 2021 12:26:02 GMT+0000 (Coordinated Universal Time)

1 44428U 98067QN 21291.65818513 .14957728 12606-4 31716-3 0 9997 2 44428 51.6152 5.5392 0005040 286.7247 73.3229 16.46578482131173

Satellite not in orbit